Flag for Canada Weather past 2 weeks in Whistler, British Columbia, Canada

Now
48 °F

Cool.


Feels Like: 48 °F
Forecast: 38 / 60 °F
Wind: 1 mph from Northeast

Location: Squamish Airport

Current Time: Sep 4, 2015 at 1:41:38 AM

Latest Report: Sep 4, 2015 at 1:00 AM


Visibility: N/A

Pressure: 30.03 "Hg (27.68 "Hg at 674m altitude)

Humidity: 96%

Dew point: 47 °F

Location of WhistlerLocation

Historic Weather in Whistler — Graph

°F

Whistler temperature yesterday

Maximum temperature yesterday: 59 °F (at 4:00 PM)
Minimum temperature yesterday: 48 °F (at 11:00 PM)
Average temperature yesterday: 52 °F

Past Weeks' High & Low Weather Summary

 TemperatureHumidityPressure
High80 °F (Aug 23, 4:00 PM)100% (Aug 29, 12:00 PM)30.14 "Hg (Aug 29, 12:00 PM)
Low48 °F (Aug 25, 7:00 AM)26% (Aug 23, 3:00 PM)29.42 "Hg (Aug 29, 12:00 PM)
Average61 °F75%29.88 "Hg
* Reported Midnight between Aug 19 and Aug 20 — Midnight between Sep 3 and Sep 4, Whistler, Weather by CustomWeather, © 2015

Note: Actual official high and low records may vary slightly from our data, if they occured in-between our weather recording intervals... More about our weather records

Advertising

Whistler weather history for previous 24 hours

 ConditionsComfort  
Time TempWeatherWind HumidityBarometerVisibility
12:00 AM
Fri, Sep 4
48 °FCool.1 mph97%30.03 "HgN/A
11:00 PM
Thu, Sep 3
48 °FCool.No wind96%30.03 "HgN/A
10:00 PM49 °FCool.No wind95%30.02 "HgN/A
9:00 PM51 °FCool.No wind95%30.02 "HgN/A
8:00 PM52 °FCool.2 mph90%30.00 "HgN/A
7:00 PM54 °FCool.1 mph85%30.00 "HgN/A
6:00 PM55 °FCool.2 mph80%29.98 "HgN/A
5:00 PM56 °FCool.1 mph74%29.98 "HgN/A
4:00 PM59 °FCool.3 mph67%29.98 "HgN/A
3:00 PM57 °FCool.1 mph76%29.99 "HgN/A
2:00 PM54 °FCool.3 mph85%30.00 "HgN/A
1:00 PM51 °FCool.5 mph94%30.01 "HgN/A
12:00 PM52 °FCool.5 mph92%30.00 "HgN/A
11:00 AM52 °FCool.1 mph86%29.99 "HgN/A
10:00 AM52 °FCool.2 mph91%29.98 "HgN/A
9:00 AM49 °FCool.No wind100%29.98 "HgN/A
8:00 AM50 °FCool.1 mph96%29.98 "HgN/A
7:00 AM49 °FCool.No wind96%29.96 "HgN/A
6:00 AM50 °FCool.1 mph97%29.96 "HgN/A
5:00 AM50 °FCool.1 mph96%29.94 "HgN/A
4:00 AM49 °FCool.No wind96%29.93 "HgN/A
3:00 AM50 °FCool.No wind96%29.92 "HgN/A
2:00 AM51 °FCool.1 mph96%29.92 "HgN/A
1:00 AM51 °FCool.No wind96%29.91 "HgN/A
Weather by CustomWeather, © 2015

See weather overviewHow to use our weather pages